New Castle, PA

11:43 AM EST on February 19, 2017 (GMT -0500)
New Castle Municipal

Weather History for KUCP - November, 2012

Change the Weather History Date:

Wednesday, November 28, 2012

  Actual Average Record
Temperature  
Mean Temperature 32 °F -  
Max Temperature 38 °F 48 °F 74 °F (1990)
Min Temperature 26 °F 32 °F -1 °F (1950)
Degree Days  
Heating Degree Days 33    
Moisture  
Dew Point 20 °F    
Average Humidity 65    
Maximum Humidity 78    
Minimum Humidity 40    
Precipitation  
Precipitation 0.00 in - - ()
Sea Level Pressure  
Sea Level Pressure 30.38 in    
Wind  
Wind Speed 4 mph (WSW)    
Max Wind Speed 13 mph    
Max Gust Speed -    
Visibility 10 miles    
Events      
Averages and records for this station are not official NWS values.
T = Trace of Precipitation, MM = Missing Value Source: NWS Daily Summary

Daily Weather History Graph

Daily Weather History Graph

Search for Another Location

Airport or City:

Trip Planner

Search our weather history database for the weather conditions in past years. The results will help you decide how hot, cold, wet, or windy it might be!

Date:

Astronomy

Nov. 28, 2012 Rise Set
Actual Time 7:24 AM EST 4:54 PM EST
Civil Twilight 6:54 AM EST 5:25 PM EST
Nautical Twilight 6:20 AM EST 5:59 PM EST
Astronomical Twilight 5:47 AM EST 6:32 PM EST
Moon 5:08 PM EST (11/28) 7:20 AM EST (11/28)
Length of Visible Light 10h 31m
Length of Day
9h 30m
Full, 100% of the Moon is Illuminated
Nov 28
Full
Dec 6
Last Quarter
Dec 13
New
Dec 20
First Quarter
Dec 28
Full

Hourly Weather History & Observations

Time (EST) Temp. Windchill Dew Point Humidity Pressure Visibility Wind Dir Wind Speed Gust Speed Precip Events Conditions
12:56 AM 28.0 °F - 20.1 °F 72% 30.36 in 10.0 mi Calm Calm - N/A   Mostly Cloudy
1:56 AM 28.0 °F - 22.1 °F 78% 30.34 in 10.0 mi Calm Calm - N/A   Mostly Cloudy
2:56 AM 29.1 °F - 21.0 °F 72% 30.34 in 10.0 mi Calm Calm - N/A   Mostly Cloudy
3:56 AM 29.1 °F 24.1 °F 21.0 °F 72% 30.32 in 10.0 mi Variable 4.6 mph - N/A   Overcast
4:56 AM 29.1 °F 23.0 °F 21.0 °F 72% 30.34 in 10.0 mi SW 5.8 mph - N/A   Mostly Cloudy
5:56 AM 27.1 °F 21.8 °F 19.0 °F 72% 30.35 in 10.0 mi WSW 4.6 mph - N/A   Clear
6:56 AM 26.1 °F 21.9 °F 19.0 °F 75% 30.37 in 10.0 mi SW 3.5 mph - N/A   Clear
7:56 AM 27.1 °F 21.8 °F 20.1 °F 75% 30.38 in 10.0 mi SW 4.6 mph - N/A   Clear
8:56 AM 29.1 °F 20.0 °F 21.0 °F 72% 30.38 in 10.0 mi SW 10.4 mph - N/A   Partly Cloudy
9:56 AM 31.1 °F 23.7 °F 22.1 °F 69% 30.39 in 10.0 mi SW 8.1 mph - N/A   Partly Cloudy
10:56 AM 34.9 °F 27.7 °F 22.1 °F 60% 30.38 in 10.0 mi WSW 9.2 mph - N/A   Clear
11:56 AM 36.0 °F 28.0 °F 18.1 °F 48% 30.38 in 10.0 mi West 11.5 mph - N/A   Clear
12:56 PM 37.9 °F 31.5 °F 17.1 °F 43% 30.36 in 10.0 mi WSW 9.2 mph - N/A   Clear
1:56 PM 38.8 °F 31.6 °F 16.2 °F 40% 30.35 in 10.0 mi WSW 11.5 mph - N/A   Clear
2:56 PM 37.9 °F 30.0 °F 20.1 °F 49% 30.36 in 10.0 mi WSW 12.7 mph - N/A   Mostly Cloudy
3:56 PM 36.0 °F 29.0 °F 20.1 °F 53% 30.36 in 10.0 mi WSW 9.2 mph - N/A   Scattered Clouds
4:56 PM 34.0 °F 26.0 °F 21.0 °F 59% 30.38 in 10.0 mi WSW 10.4 mph - N/A   Scattered Clouds
5:56 PM 31.1 °F 26.4 °F 20.1 °F 64% 30.40 in 10.0 mi WSW 4.6 mph - N/A   Clear
6:56 PM 30.0 °F - 20.1 °F 67% 30.42 in 10.0 mi Calm Calm - N/A   Partly Cloudy
7:56 PM 31.1 °F - 22.1 °F 69% 30.43 in 10.0 mi Calm Calm - N/A   Mostly Cloudy
8:56 PM 32.0 °F 27.5 °F 22.1 °F 67% 30.42 in 10.0 mi SW 4.6 mph - N/A   Overcast
9:56 PM 31.1 °F 26.4 °F 22.1 °F 69% 30.42 in 10.0 mi SW 4.6 mph - N/A   Scattered Clouds
10:56 PM 29.1 °F 23.0 °F 22.1 °F 75% 30.42 in 10.0 mi SSW 5.8 mph - N/A   Clear
11:56 PM 29.1 °F 22.1 °F 22.1 °F 75% 30.42 in 10.0 mi SW 6.9 mph - N/A   Clear